星链-34568 (STARLINK-34568)

导读 | 星芒AI

STARLINK-34568 是 SpaceX Starlink 卫星互联网项目中的一颗低轨通信卫星。该卫星属于 Starlink 群体部署的一部分,旨在为全球用户提供高速、低延迟的互联网服务。它运行在约 550 公里的近地轨道上,配备先进通信设备,支持宽带数据传输。该计划致力于改善偏远地区网络接入,推动全球数字连接。

基本信息
目录编号:
64717
目录名称:
STARLINK-34568
国际标识:
2025-142X
轨道中心:
EARTH
卫星名称:
星链-34568
卫星全名:
星链-34568 (STARLINK-34568)
卫星状态:
在轨 (已飞行124 天)
发射日期:
2025-06-28 UTC
国别 :
美国 (US)
星等 :
--
轨道信息
数据来源 国际轨道数据
星历时间: 2025-10-30T14:21:55+0800
12小时前
查看轨道信息
半长轴: 6950.043km
偏心率: 0.000305
轨道倾角: 70.001°
近地点辐角 266.688°
升交点赤经 283.328°
平近点角 93.393°
近地点: 569.788km
远地点: 574.028km
周期: 96.104分钟
每日圈数: 14.983786
详细信息
固有亮度:
5
最大亮度:
2.5
卫星平台:
Starlink V1.0
覆盖范围:
全球
运营商:
太空探索技术公司
运营商所在国:
美国
制造商(研发单位):
太空探索技术公司
制造商所在国:
美国
使用方式:
暂无
卫星简介
Starlink 计划是 SpaceX 推出的全球卫星互联网项目,通过发射低轨道卫星,为全球尤其是偏远地区提供高速、低延迟的互联网服务。自 2019 年起,Starlink 已部署数千颗卫星,旨在缩小全球数字鸿沟,推动互联网普及。该项目还为军事、航空等行业提供通信支持,带来广泛经济效益。
2D轨道图
3D轨道图
轨道高度分析图
轨道倾角分析图
轨道综合分析图
查看轨道综合分析图